Theta_e
314 315 317 319 322 325 329 329 330 335 331 324 325 326 323 323 323 323 325 325 327 326 326 327 326 326 332 339 339 339 338 341 342 346 348 341 338 339 339 340 337 335 336 336 335 330 324 323 327 332 334 334 333 333 333 335 336 335 335 335 336 336 337 336 335 335 335 335 335 334 333 333 333 333 332 332 332 332 331 331 332 332 332 332 332 332 332 332 331 331 331 330 330 330 329 329 329
314 318 321 323 325 325 333 333 331 333 325 319 320 323 323 324 323 322 326 327 327 327 329 329 328 327 332 337 337 340 340 339 339 341 341 338 339 339 340 339 335 334 334 335 332 325 321 321 326 332 334 334 334 333 334 334 336 336 335 335 336 336 337 335 334 334 334 334 335 334 333 332 332 333 333 332 332 332 332 332 331 332 331 331 332 332 331 331 331 331 330 329 329 328 328 328 328
314 319 323 325 326 325 331 331 328 325 319 318 320 322 324 326 325 325 327 328 329 330 330 329 329 326 330 338 338 342 341 338 337 338 338 339 340 339 340 337 335 334 334 334 328 320 318 322 329 332 333 333 333 333 333 333 334 334 334 336 336 337 336 335 333 333 333 334 334 334 333 332 332 332 332 332 331 331 331 330 329 330 331 330 331 331 331 331 331 330 330 329 328 327 327 327 327
315 319 323 324 329 329 329 330 329 322 318 322 319 318 326 328 327 326 327 329 330 328 326 329 330 325 331 340 339 340 341 338 338 338 338 339 339 339 340 337 337 337 336 334 325 317 317 322 328 331 331 332 333 333 333 333 333 333 334 334 335 335 335 334 333 332 331 332 333 333 333 332 331 330 331 333 331 331 331 330 330 330 330 330 331 330 330 330 330 330 330 329 328 327 327 327 328
317 320 323 322 329 332 328 327 330 322 320 326 319 320 327 327 328 327 327 328 328 328 326 329 329 323 331 337 337 341 340 338 338 338 338 338 339 339 339 338 339 340 338 334 323 316 316 317 323 329 331 331 332 332 333 332 332 333 332 333 334 335 334 333 332 330 328 330 332 332 332 331 330 329 330 333 331 331 332 332 331 331 330 330 331 331 330 330 329 329 329 328 327 327 328 329 329
321 322 322 321 324 328 327 325 328 324 322 327 321 323 327 325 327 326 326 326 327 329 326 328 327 327 334 336 337 340 338 338 338 338 338 338 339 339 339 339 340 340 339 333 321 315 315 314 320 328 330 330 331 332 333 333 333 332 332 333 334 334 333 332 331 328 326 329 332 331 331 330 330 329 330 332 331 332 332 332 331 331 330 330 331 330 330 329 329 328 328 328 327 327 328 329 328
322 326 326 323 324 325 328 325 327 327 321 322 322 324 325 323 325 324 326 325 325 327 326 327 327 331 335 336 339 339 337 338 338 338 338 337 338 339 340 340 340 340 339 332 319 315 314 312 317 325 329 328 330 332 333 334 334 332 333 334 333 333 332 331 330 329 328 330 331 330 331 330 329 328 330 331 332 332 330 330 331 331 330 329 330 330 330 330 329 328 327 327 327 327 327 328 327
321 328 331 328 330 327 327 325 329 330 318 319 323 323 323 323 324 324 325 325 324 325 326 325 326 331 331 336 341 338 337 337 338 338 338 337 338 339 340 341 340 340 338 327 318 316 314 313 315 321 327 328 329 331 332 333 333 333 334 334 333 332 330 329 330 330 329 329 329 329 329 328 329 328 330 332 332 330 328 329 331 330 329 328 329 330 330 329 329 328 327 326 326 326 325 327 327
321 326 331 328 331 328 325 325 328 327 319 321 322 323 324 323 324 323 323 323 323 324 326 324 325 330 332 339 340 337 338 338 338 338 337 337 338 339 340 340 340 340 335 324 318 316 314 313 314 319 325 328 329 330 332 332 332 333 333 332 331 330 329 329 329 329 330 330 329 329 328 328 328 328 330 331 332 331 329 330 331 330 329 328 328 329 329 328 328 328 327 327 326 326 325 325 326
323 323 330 328 328 326 324 325 324 322 319 322 322 323 323 322 322 322 322 322 323 325 324 323 329 336 336 341 340 337 338 337 338 338 337 338 338 340 340 340 340 339 333 323 318 317 316 314 314 317 321 326 327 328 331 331 332 333 332 332 330 329 329 330 330 328 329 329 329 329 328 328 327 328 329 330 330 331 330 329 329 329 328 327 325 327 328 328 327 327 327 327 325 324 324 326 326
330 322 327 327 324 322 322 323 322 321 319 320 320 320 322 321 320 320 321 322 324 326 323 321 329 338 340 341 342 338 337 337 338 337 337 338 339 340 340 340 340 339 333 324 319 318 317 315 314 314 317 322 324 327 330 330 331 332 332 331 330 329 329 330 331 328 327 327 328 329 328 328 328 327 327 329 330 330 331 329 329 328 328 327 325 324 326 327 328 327 327 326 325 323 324 326 326
334 327 326 327 327 327 325 324 320 321 319 320 320 319 322 321 319 319 321 324 326 325 324 322 324 335 342 344 342 337 337 338 337 337 337 338 339 340 339 340 340 339 334 326 321 319 319 317 315 314 315 318 321 325 328 329 330 330 331 330 329 330 329 329 331 329 327 325 325 326 327 329 329 326 325 328 329 329 330 329 329 329 329 328 325 324 325 326 327 327 326 325 324 323 323 324 325
335 331 325 326 332 330 327 324 321 322 319 321 321 319 322 322 321 319 321 324 325 324 323 322 322 335 343 342 340 337 338 338 337 337 337 338 339 340 340 340 340 339 335 329 323 320 320 319 317 315 313 315 318 322 326 328 327 328 328 327 327 328 329 329 330 330 328 326 324 324 325 328 329 328 325 325 327 328 329 329 330 330 330 329 326 324 325 326 325 325 325 325 324 322 323 323 324
330 332 325 327 333 326 325 322 319 321 318 320 320 320 322 322 320 317 321 322 322 323 321 320 326 341 344 340 340 338 338 337 337 337 337 338 339 340 340 340 340 339 336 332 327 322 320 320 320 317 315 314 316 319 322 325 326 326 327 327 326 326 327 328 329 328 328 326 323 323 324 326 328 328 326 325 325 327 328 328 330 331 330 329 327 324 322 324 325 325 326 325 324 323 323 323 323
326 334 328 328 332 325 327 325 321 322 317 320 320 320 321 318 319 318 321 323 321 320 320 319 323 333 340 343 343 337 337 337 336 336 336 337 338 340 339 340 340 340 339 335 333 328 323 321 321 320 318 315 314 315 318 322 324 325 327 327 326 325 324 324 326 326 324 322 321 322 323 325 326 326 326 324 324 325 326 327 328 329 329 328 327 323 320 323 325 326 326 325 324 324 324 323 323
330 340 329 328 332 327 331 327 323 323 319 321 319 320 321 317 319 318 318 322 320 318 321 321 321 328 336 344 342 334 336 338 336 336 336 337 338 340 339 340 340 340 340 339 338 335 330 325 322 322 321 318 315 314 315 317 319 323 326 325 325 324 322 321 322 321 320 318 316 318 320 322 324 324 324 322 323 324 324 325 323 324 325 324 324 322 319 320 324 325 325 324 324 324 324 324 324
332 338 330 328 332 328 330 325 323 325 321 321 319 320 321 317 318 316 315 318 318 321 329 327 327 336 340 339 336 335 337 336 336 335 336 338 339 339 339 339 340 340 340 340 340 338 336 333 327 323 323 322 319 317 314 314 315 317 322 323 323 323 322 321 320 319 318 317 317 320 321 320 320 320 320 319 321 321 322 323 322 321 321 321 321 321 319 318 321 323 324 324 323 323 323 323 323
329 334 329 326 331 329 330 327 325 325 321 319 319 320 321 318 317 316 315 317 319 323 329 331 335 338 336 335 335 336 337 336 336 335 335 337 338 338 339 339 338 339 340 340 340 339 339 338 334 328 328 327 326 325 319 314 314 314 316 319 321 322 321 321 320 319 321 324 325 326 327 324 322 319 317 316 317 317 318 319 320 320 319 319 318 318 318 316 318 321 322 322 322 323 323 323 323
327 333 327 328 337 331 323 323 322 321 319 319 319 319 320 319 318 316 317 317 321 324 324 331 340 339 336 335 335 336 335 336 335 334 335 335 336 336 337 338 337 338 339 339 339 340 339 339 338 334 333 332 331 332 327 320 315 314 314 315 319 320 321 320 320 319 323 329 329 329 329 328 327 323 318 314 314 314 315 315 315 316 317 317 316 316 318 316 318 321 321 322 324 324 324 324 323
325 326 327 335 337 324 317 318 320 320 319 319 318 318 319 319 318 316 317 318 320 324 324 330 339 340 339 336 334 335 335 335 335 334 334 334 335 336 336 337 336 337 338 339 339 339 339 339 338 336 335 335 334 334 332 327 320 316 315 314 315 317 319 319 319 318 322 328 330 330 329 328 328 326 322 315 313 312 311 312 312 313 313 314 314 313 317 317 318 320 320 323 325 324 324 325 324
321 321 330 335 324 318 319 317 318 319 318 318 319 318 319 317 317 316 316 318 317 319 322 328 337 339 339 336 334 335 335 335 334 334 334 334 334 335 336 336 336 336 337 338 338 338 339 339 339 337 336 335 335 334 333 332 326 320 322 321 317 316 316 317 320 320 322 328 330 330 329 329 328 327 325 318 317 317 314 312 312 314 311 312 315 314 315 315 316 317 319 322 324 324 325 324 325
319 321 327 326 317 319 319 316 317 318 317 319 319 318 318 316 316 316 316 318 318 316 317 322 332 337 338 336 335 334 334 334 334 334 334 334 333 334 336 336 336 336 336 337 337 338 338 339 339 338 337 336 335 335 334 334 331 326 329 330 325 324 319 316 321 322 324 327 330 330 329 330 327 327 326 321 322 324 321 319 318 319 316 313 316 317 316 314 314 316 317 322 323 323 324 324 324
320 321 321 319 318 319 317 317 317 317 318 319 319 317 316 316 315 316 317 318 318 315 315 319 328 335 336 335 335 334 334 333 333 334 334 334 333 334 335 335 336 336 336 336 336 337 337 338 339 338 338 337 336 336 335 335 334 329 331 332 330 330 327 323 324 324 325 325 328 330 329 330 328 326 326 323 325 326 325 325 323 323 321 317 315 317 320 317 315 315 316 322 323 323 323 323 323
319 320 319 317 318 318 317 316 316 318 320 318 318 316 316 318 316 316 317 317 316 316 317 318 325 334 336 335 334 334 334 334 334 334 334 334 333 334 335 334 334 335 335 334 335 337 337 337 338 338 338 337 336 336 335 335 334 332 332 332 331 331 331 330 328 327 327 325 326 329 329 330 326 325 328 325 325 327 325 326 325 324 323 321 317 318 321 320 316 314 315 320 321 322 323 322 321
319 320 319 316 316 318 316 315 316 318 318 316 317 317 317 317 316 317 317 316 315 319 323 324 328 335 336 336 335 334 334 334 334 334 334 334 334 334 334 334 334 335 335 335 334 336 337 337 337 337 338 338 337 336 335 336 335 333 333 333 332 331 331 331 331 330 329 328 327 327 328 328 326 326 328 327 325 326 326 326 326 325 324 322 320 318 320 320 317 313 315 319 320 320 319 317 317
319 319 318 316 315 315 315 315 317 318 316 316 318 317 316 315 315 316 316 316 316 322 330 331 333 336 336 336 334 333 333 334 333 334 334 334 334 334 334 334 334 334 335 335 334 335 336 336 337 337 337 337 337 336 335 336 335 334 334 334 332 332 331 331 331 331 330 330 329 328 326 326 327 327 328 328 327 325 326 326 326 325 324 323 322 320 319 318 317 315 315 317 318 317 315 315 315
319 318 317 316 315 314 315 315 316 317 317 317 319 316 315 314 314 316 315 314 317 323 329 332 335 336 336 335 334 334 333 334 334 334 335 334 334 335 335 335 335 335 335 335 335 335 335 335 337 337 337 337 337 336 336 336 336 334 335 334 333 332 332 332 331 331 331 331 331 330 328 326 327 328 327 328 328 326 326 326 326 325 324 323 323 322 320 319 318 317 317 317 317 316 316 316 316
317 316 316 314 314 314 315 316 315 316 316 317 319 316 315 315 315 318 317 314 317 322 325 328 334 335 335 335 333 333 333 334 335 334 335 335 335 335 335 335 335 335 335 335 335 335 334 334 336 336 337 337 337 336 336 336 336 335 334 334 334 333 332 332 332 332 331 331 331 331 330 329 328 328 328 328 328 327 326 326 326 325 325 324 324 323 322 322 321 320 318 318 319 318 317 317 318
316 316 316 314 314 314 314 315 316 316 315 316 317 315 316 316 317 319 316 313 315 321 322 323 328 329 332 334 333 333 333 334 334 334 335 335 335 335 335 335 336 336 335 335 335 334 334 334 334 336 337 337 337 336 336 336 336 335 335 334 334 333 332 332 332 332 332 331 331 331 331 330 329 328 328 328 328 328 327 327 326 326 326 325 324 325 324 324 323 322 320 320 320 319 319 318 318
315 316 316 315 314 314 315 315 316 316 315 316 315 317 321 319 317 316 314 314 315 320 322 321 322 322 325 330 332 332 331 332 334 334 335 335 336 336 336 336 336 336 336 335 335 335 335 335 334 334 336 336 336 336 336 336 336 336 335 335 334 333 333 332 332 332 332 332 332 331 331 331 331 330 329 328 328 328 327 327 327 326 327 326 325 325 326 326 325 324 323 322 321 320 320 319 317
316 315 316 319 317 315 316 315 316 315 314 315 313 317 324 321 316 315 313 315 315 319 321 320 320 319 320 325 329 330 328 330 334 334 335 335 336 337 336 336 336 337 336 336 336 335 335 335 335 334 335 335 336 336 336 336 336 336 336 336 335 334 333 333 333 332 332 333 332 331 331 331 331 331 330 328 327 328 327 327 327 327 327 326 326 325 325 326 326 325 325 324 323 322 322 322 320
316 316 317 318 317 316 316 315 316 316 313 314 313 316 322 319 314 313 313 314 314 317 319 320 320 318 320 324 327 330 328 328 332 334 335 335 336 336 337 337 337 337 337 336 336 336 335 335 335 335 334 334 335 336 336 336 336 336 336 336 335 335 334 334 333 333 332 332 332 331 331 331 331 330 330 329 328 328 327 327 327 327 327 326 326 325 325 325 325 325 325 325 325 325 325 324 323
315 319 322 320 318 317 316 315 317 316 314 313 313 316 319 316 314 313 313 314 315 316 317 319 319 318 321 325 328 330 330 329 331 332 334 335 336 336 337 337 337 337 337 336 336 336 335 335 335 335 335 334 335 336 336 335 335 335 336 336 336 335 335 335 334 334 333 332 332 331 331 331 331 330 330 329 329 328 328 327 327 327 326 326 326 326 325 325 325 325 325 325 325 325 324 324 323
316 317 322 322 319 317 317 316 317 317 315 314 314 316 319 317 314 315 315 314 315 315 315 316 317 318 320 325 328 329 331 332 331 330 333 335 336 336 336 336 337 337 337 336 336 336 335 335 335 335 335 335 334 335 335 335 334 334 335 335 336 336 335 335 335 334 334 333 332 331 331 330 330 330 330 329 328 328 328 328 327 327 326 326 326 326 326 325 325 325 325 326 325 324 323 323 323
319 317 319 321 317 316 317 316 317 317 315 314 314 314 318 317 313 314 315 314 315 316 315 314 315 317 319 322 325 326 328 331 329 329 333 334 335 336 335 335 336 336 336 336 336 336 335 335 335 335 335 335 334 335 335 335 334 334 335 335 335 336 335 335 335 335 334 333 333 332 331 330 329 329 328 328 327 328 328 327 327 327 327 326 326 325 325 325 325 325 325 326 325 324 323 323 323
321 319 319 323 318 316 318 317 317 316 314 316 315 314 316 316 314 315 314 314 314 314 315 314 314 315 316 318 321 322 325 327 326 327 331 333 334 334 335 335 335 335 335 335 335 336 336 335 335 335 335 335 335 334 336 335 334 334 334 334 335 335 335 335 335 335 334 334 333 333 332 331 331 330 329 328 328 329 328 327 327 327 327 327 326 326 326 326 326 326 326 325 325 325 324 323 323
319 319 318 321 320 317 318 317 316 315 315 315 315 315 315 315 316 316 314 314 314 313 314 315 315 314 314 316 317 318 320 320 321 325 330 332 333 333 334 334 334 334 334 334 335 335 336 336 335 335 335 334 334 334 335 336 335 334 334 334 334 335 335 335 335 335 334 334 334 333 333 333 332 331 331 330 329 329 328 327 327 327 328 328 328 327 326 326 327 327 326 326 326 325 325 324 324
316 318 316 318 321 318 316 316 315 314 315 315 314 314 314 315 316 315 314 313 314 314 314 315 316 315 314 315 316 316 317 318 318 321 326 330 332 333 333 334 333 334 334 334 334 334 334 335 335 335 334 334 334 333 334 335 335 334 333 333 334 334 334 334 334 334 334 334 334 333 333 333 333 332 332 331 330 330 329 328 328 328 329 329 328 327 326 326 327 327 326 326 326 326 326 325 324
314 318 317 318 321 319 314 315 316 315 314 315 316 314 315 317 315 315 314 314 314 313 314 315 316 318 316 316 317 316 319 324 322 320 323 328 331 332 333 334 334 333 334 334 334 334 333 334 334 334 334 334 334 333 333 333 334 334 333 331 332 333 333 333 333 332 332 333 333 333 333 333 333 332 332 332 331 331 330 329 329 329 330 330 329 328 327 327 326 327 326 326 326 326 325 324 324
316 319 317 317 320 319 315 314 315 315 314 314 317 317 316 316 316 317 314 313 314 313 313 315 316 318 317 317 317 318 323 327 325 322 321 323 329 332 332 333 334 334 335 335 335 335 334 334 334 333 334 333 333 333 332 332 332 333 333 331 330 330 330 330 330 331 331 332 332 332 333 333 333 332 332 332 332 331 331 331 331 330 330 330 329 328 328 327 327 326 326 326 326 325 324 324 325
318 320 317 318 320 320 317 315 315 314 313 314 316 316 318 319 315 317 316 312 313 314 314 314 315 317 317 317 317 318 324 326 324 324 319 317 322 328 331 333 334 334 335 336 335 335 335 335 334 334 334 334 333 333 333 333 332 332 332 332 331 330 331 330 330 331 331 331 331 332 332 332 333 332 331 331 331 331 331 331 331 330 330 330 330 329 329 328 328 327 327 327 326 325 325 325 325
317 320 321 319 317 320 319 316 316 314 314 318 314 312 325 330 317 313 314 312 313 314 315 315 316 319 319 319 321 321 322 322 320 320 316 313 316 321 325 327 330 332 333 335 335 335 335 335 335 334 334 334 334 333 333 333 333 332 332 332 332 332 331 331 331 331 331 331 331 331 332 332 332 332 330 331 331 331 331 331 330 330 330 330 330 330 330 329 329 328 328 328 327 327 326 324 324
315 318 322 318 317 323 320 316 319 318 316 317 313 312 323 327 319 316 314 312 314 316 317 317 316 319 321 321 324 323 321 320 319 318 314 311 312 314 315 318 323 327 329 331 332 333 334 334 335 335 334 334 334 334 333 333 333 333 332 332 332 332 331 331 331 331 331 331 331 331 331 331 331 331 330 330 330 331 331 331 331 331 331 331 331 330 330 330 329 329 328 328 328 327 325 324 324
319 321 320 318 318 323 319 316 324 326 319 314 315 317 315 315 320 321 315 312 314 315 317 318 315 317 319 321 325 327 326 326 324 324 319 311 310 311 312 313 314 317 321 323 325 328 330 331 333 334 334 334 335 334 334 333 333 333 332 332 332 332 331 331 331 331 331 330 330 330 330 330 330 330 330 330 330 331 331 332 331 331 331 330 330 330 330 329 328 328 328 328 327 326 325 325 324
321 323 320 319 318 320 320 319 326 327 319 315 318 316 312 321 329 320 313 313 313 315 316 316 316 318 321 325 329 332 333 331 330 329 320 311 309 311 312 312 312 312 313 314 317 323 326 327 329 331 332 333 333 334 334 333 332 332 333 332 332 332 331 331 330 330 330 329 329 329 328 329 329 329 329 329 329 329 329 329 328 328 328 328 328 328 328 328 328 328 328 327 327 326 326 325 323
319 323 322 322 321 321 320 324 328 320 315 321 323 315 310 324 334 318 310 314 314 314 315 313 315 319 323 327 330 330 328 327 330 326 315 311 313 313 312 312 312 312 311 311 313 319 323 325 327 328 330 331 332 332 333 332 332 332 332 332 331 331 331 330 329 329 328 328 328 328 328 327 328 327 327 327 327 327 327 326 326 325 325 326 326 326 325 326 326 326 326 326 326 326 326 325 324
320 324 323 322 325 330 332 336 333 317 318 332 328 318 311 316 329 323 313 316 316 314 314 315 317 320 324 326 327 327 325 324 327 323 313 312 315 314 313 313 313 312 312 311 312 315 319 322 325 327 328 329 330 331 331 331 331 331 331 331 330 330 329 328 328 328 328 327 327 327 327 327 327 326 326 325 324 324 324 323 322 322 322 323 323 323 323 324 324 324 324 324 324 324 324 324 324
325 328 322 318 323 332 335 332 323 316 325 332 322 317 314 315 324 324 317 316 316 313 315 319 321 322 325 325 325 327 327 324 324 323 316 312 312 313 314 313 313 313 312 311 310 312 315 319 323 326 326 327 328 329 330 330 330 330 329 328 328 328 328 328 327 327 326 326 326 324 323 323 324 323 322 321 320 320 320 319 319 318 318 319 320 320 320 320 321 321 321 321 321 321 321 321 321
325 323 318 320 322 322 324 324 321 322 324 319 315 316 317 317 319 319 317 316 315 316 317 319 321 323 325 324 325 326 325 325 323 322 320 314 310 312 314 314 314 313 313 313 311 311 313 317 321 323 324 325 326 327 328 328 327 327 326 326 327 327 327 327 326 326 325 324 323 322 321 321 321 320 320 319 319 319 318 318 317 317 317 317 317 316 317 317 317 318 318 318 318 319 319 319 319
319 315 316 325 324 316 316 319 320 323 320 314 313 316 318 318 317 316 316 314 316 318 318 318 319 322 324 323 324 324 323 324 322 321 321 316 310 312 315 316 317 315 314 315 315 314 315 317 320 321 322 324 324 325 326 326 325 325 325 325 325 325 325 325 325 324 324 323 322 321 321 320 320 319 319 318 318 317 317 317 317 316 316 315 315 314 314 314 314 314 314 315 315 316 316 316 316
319 319 318 323 326 322 321 321 323 324 322 316 311 315 322 319 314 314 312 310 314 318 318 319 319 321 324 324 324 324 323 322 321 320 319 313 310 313 315 316 318 318 317 318 319 318 318 320 321 321 322 323 323 324 325 325 324 324 324 324 324 324 324 324 323 322 321 321 321 321 320 319 318 318 318 317 317 316 315 315 313 312 312 312 312 311 310 310 310 310 311 311 312 312 312 312 313
321 322 320 321 324 330 327 324 331 329 321 317 314 320 326 317 310 312 310 309 312 315 319 320 321 322 323 324 324 324 323 320 319 320 318 311 309 312 313 314 316 317 318 319 320 320 320 320 321 321 322 322 322 323 323 323 322 322 323 323 322 321 320 320 319 318 318 317 316 316 315 315 314 314 315 314 313 312 311 310 309 309 309 309 309 308 307 307 308 308 309 308 308 308 308 309 310
322 319 323 324 321 328 325 315 320 322 319 319 316 318 321 314 312 312 309 311 311 311 317 319 320 322 322 323 323 322 321 320 318 319 315 309 308 310 311 312 313 313 315 317 319 320 319 319 318 318 318 319 320 320 320 319 319 319 319 319 317 316 316 317 316 316 315 314 313 313 312 312 311 311 311 309 309 308 308 308 307 307 307 307 306 306 306 306 306 306 306 306 305 305 305 305 306
322 319 322 321 315 321 325 316 314 316 320 323 315 314 318 314 317 315 309 312 312 310 314 316 317 320 320 321 321 320 320 318 317 316 311 307 306 308 309 310 311 311 312 313 316 317 317 317 317 316 316 317 317 318 317 316 316 316 316 316 315 315 315 315 315 314 313 312 311 311 311 310 309 308 308 307 307 307 306 306 306 306 306 305 305 305 305 305 305 305 305 305 305 304 303 303 303
320 321 319 319 318 320 321 318 316 314 317 322 316 314 317 316 319 319 311 313 313 309 311 315 317 318 319 320 320 319 318 317 316 316 312 306 305 307 308 308 309 310 310 310 311 313 313 314 314 314 314 314 315 315 315 315 314 314 314 314 313 313 312 312 311 310 310 310 309 309 308 308 307 307 307 307 306 306 306 306 305 305 305 304 304 304 304 303 303 303 303 303 302 302 301 300 300
315 317 314 317 323 323 320 317 319 319 318 320 317 314 321 323 321 322 318 316 313 310 310 314 316 317 317 319 319 317 317 316 315 315 312 306 304 306 307 307 308 308 308 309 309 309 310 310 311 311 311 312 312 313 312 311 311 311 311 310 310 309 309 309 308 308 308 308 307 307 307 307 307 307 306 306 306 305 304 304 303 302 302 301 300 300 300 300 300 300 300 299 299 298 298 297 297
316 316 313 314 316 318 320 318 321 326 323 324 318 316 330 332 318 318 320 315 311 309 310 312 313 316 317 317 317 316 316 316 313 313 311 305 304 307 307 306 307 307 307 307 307 307 307 307 308 308 308 309 309 309 309 308 308 307 307 307 307 307 308 307 307 307 307 307 306 306 306 306 306 305 304 303 302 302 301 300 300 299 298 298 297 297 297 297 296 296 296 296 296 295 295 295 295
316 315 314 316 316 317 318 315 319 322 321 329 324 319 336 333 312 312 316 312 310 308 309 312 313 316 317 316 316 315 315 314 312 312 308 304 304 306 306 306 306 306 306 306 306 306 306 306 306 306 307 307 307 307 307 306 306 306 306 306 306 306 306 306 306 306 306 306 306 305 304 304 302 301 301 300 299 298 298 297 297 296 296 295 295 295 295 295 294 294 294 294 294 294 294 294 294
Wind_Speed
5 3 2 2 5 6 4 2 2 3 2 0 3 1 2 2 4 5 5 5 4 2 2 4 4 4 5 8 10 9 6 3 1 3 2 6 21 24 20 22 21 19 18 15 13 13 13 14 16 17 17 16 17 18 16 14 13 13 14 14 13 14 15 16 16 16 16 16 16 18 19 19 17 17 19 19 19 19 18 18 18 19 18 18 18 18 18 18 18 18 18 17 17 18 19 21 22
5 4 2 4 5 4 2 2 2 3 4 2 4 2 3 2 5 6 6 5 4 2 3 6 6 8 10 11 9 7 8 6 3 4 5 18 24 21 24 23 21 19 17 14 13 13 14 15 17 18 18 16 16 17 16 14 14 13 13 14 14 14 15 15 16 17 16 16 16 17 18 18 17 17 18 18 18 18 18 18 18 18 17 17 17 17 18 18 18 18 18 17 17 17 19 20 21
5 3 3 5 3 0 1 2 2 1 2 2 4 3 2 6 6 7 8 8 6 5 5 5 6 6 7 9 6 6 4 4 7 8 9 22 19 19 25 22 21 18 16 15 13 14 15 16 17 17 18 18 17 16 15 14 13 13 13 14 15 14 13 14 15 16 16 16 16 16 17 17 17 17 16 17 17 17 17 17 17 17 17 17 17 17 17 17 17 18 17 17 17 17 18 19 20
4 2 5 5 3 1 3 2 2 2 1 3 2 4 3 9 8 8 8 8 7 7 4 3 4 2 7 11 6 5 4 3 8 8 7 17 19 22 25 21 20 16 15 14 13 14 15 16 17 17 19 20 18 17 15 13 12 11 12 13 13 14 13 13 13 14 14 15 15 15 16 16 16 16 16 16 17 18 17 17 17 16 16 16 16 16 16 17 17 17 17 16 17 17 18 19 21
3 2 4 3 2 1 2 0 1 2 3 3 3 2 4 8 9 9 6 6 5 6 4 3 3 2 6 6 3 3 3 5 8 10 11 18 25 26 23 22 21 17 15 13 13 14 14 15 15 17 19 20 19 17 15 13 12 11 11 12 13 14 13 12 11 10 11 14 15 14 15 16 16 16 16 15 16 17 17 16 16 15 15 16 15 16 16 16 16 16 15 16 16 17 18 20 21
4 4 1 1 1 1 1 1 1 2 5 4 5 3 6 7 9 10 6 5 5 5 4 4 4 4 5 2 3 3 2 7 8 11 18 23 27 26 23 22 21 17 15 13 14 14 14 13 14 18 18 19 20 18 16 13 11 12 12 13 13 13 13 12 11 10 12 16 15 14 15 15 15 15 15 15 15 15 15 14 14 15 16 16 15 15 15 15 15 15 15 15 15 15 18 20 21
6 5 2 2 1 1 2 1 2 3 4 2 8 7 7 7 8 10 8 5 5 5 4 4 7 7 3 1 4 5 3 11 11 15 23 26 27 25 23 23 21 17 15 14 14 14 14 13 14 16 16 19 19 18 17 15 13 13 13 14 14 13 13 13 13 14 15 17 15 15 15 15 15 15 15 15 14 14 13 13 13 15 16 15 15 15 15 15 14 14 14 14 14 15 18 20 19
2 1 1 3 1 2 2 2 3 3 1 3 8 9 9 9 7 9 7 4 2 1 3 4 8 7 2 3 3 5 10 18 18 22 27 28 27 23 23 23 21 18 16 16 15 15 14 13 14 15 17 18 18 18 17 17 15 13 12 13 14 13 13 13 14 16 17 16 15 15 14 14 14 15 15 14 13 12 12 12 13 14 15 15 15 15 14 14 14 13 13 13 13 14 16 17 16
2 1 2 3 0 2 1 2 3 3 1 5 7 8 10 9 7 7 7 5 4 3 2 4 7 7 2 6 4 2 12 21 25 27 27 26 25 23 24 23 20 18 17 17 16 15 14 13 14 15 17 17 17 17 17 17 16 12 10 11 12 12 13 14 14 16 17 16 15 14 14 14 14 14 14 14 13 12 12 12 12 12 13 13 13 13 13 13 13 13 12 12 12 13 15 15 14
2 1 1 2 0 2 4 3 2 2 2 5 6 8 9 8 7 7 8 6 5 5 3 4 8 8 6 6 3 2 12 22 27 27 25 25 24 25 23 21 19 19 19 18 17 16 15 14 14 14 16 16 16 17 18 17 15 12 10 10 10 11 13 13 14 15 16 15 15 15 14 13 14 14 14 14 13 12 12 11 11 11 10 11 12 12 12 12 12 12 12 11 11 12 13 13 14
2 2 2 1 1 2 4 2 3 3 2 3 3 5 8 8 8 7 9 6 4 6 4 3 9 7 7 5 1 5 16 21 25 27 25 24 24 24 22 19 17 16 19 19 17 17 16 14 13 13 14 15 15 17 19 17 15 13 12 12 11 12 13 13 13 14 15 14 15 15 15 14 13 13 13 13 13 12 11 11 11 10 9 9 10 11 11 11 11 11 10 10 11 11 11 11 12
2 2 3 2 2 4 4 4 5 3 1 3 2 2 4 8 8 8 9 7 5 6 2 2 7 6 6 3 2 8 18 19 23 27 24 21 23 24 20 19 16 14 17 18 17 17 16 15 14 13 13 14 15 17 18 17 14 13 13 12 12 13 13 12 12 14 14 13 13 14 16 15 12 11 12 13 13 12 11 10 10 10 10 10 10 11 10 10 10 9 9 9 10 10 10 10 10
2 1 5 2 4 3 3 5 5 3 0 2 3 3 2 6 7 9 9 8 7 6 3 5 6 7 5 2 2 7 14 19 23 26 23 19 23 24 21 19 15 13 16 17 17 16 16 15 14 13 13 14 15 16 17 16 13 12 12 11 12 13 13 13 13 13 12 11 11 11 13 14 13 11 11 11 10 10 10 9 9 10 11 10 9 9 9 9 9 8 8 8 9 9 9 10 10
2 2 4 2 2 1 2 4 4 5 2 4 3 2 3 4 3 7 10 8 4 5 3 3 6 8 4 2 3 3 10 21 24 25 20 17 23 24 21 19 16 14 15 16 15 15 15 14 13 13 12 13 14 15 15 14 12 11 11 10 11 12 12 12 12 12 10 10 10 10 11 11 11 11 10 10 9 9 9 8 8 9 8 7 5 7 8 8 9 8 8 7 8 8 8 9 10
2 1 3 0 3 2 2 4 5 5 4 4 4 3 5 3 2 6 8 8 1 3 2 3 4 5 5 6 4 7 15 25 26 23 17 17 24 24 22 19 16 14 14 15 14 13 14 14 13 12 12 12 13 14 14 14 12 10 10 10 10 10 10 10 10 10 9 8 9 10 10 10 9 9 9 9 9 7 6 7 7 7 5 4 4 6 7 7 8 8 7 6 7 8 7 8 9
3 3 4 1 2 3 4 4 5 5 3 5 5 4 7 3 3 6 2 6 3 1 3 3 2 3 7 7 9 16 24 28 26 22 19 22 27 25 23 20 17 15 13 14 12 12 12 12 13 12 12 11 11 12 13 13 12 11 10 10 9 9 9 10 10 9 9 8 9 10 10 10 9 7 7 7 8 7 6 5 5 4 3 2 3 4 5 5 7 7 7 6 7 7 7 7 7
3 4 3 2 2 3 4 4 6 5 4 5 5 4 8 2 3 3 1 6 7 4 6 3 4 4 3 8 19 28 30 30 26 22 23 28 28 25 24 22 21 18 14 14 13 13 12 11 12 12 12 11 11 11 11 12 11 11 11 10 10 9 9 9 10 10 9 10 10 10 9 9 8 7 6 6 7 7 7 5 4 2 1 1 1 2 3 4 5 6 6 6 6 7 7 7 6
4 3 2 2 3 4 5 6 6 6 6 7 7 5 9 6 2 2 3 7 7 7 6 4 7 8 8 18 29 32 31 30 26 25 25 26 25 24 23 22 22 21 17 16 16 14 13 11 11 12 12 11 11 9 9 11 11 11 11 11 10 9 9 8 9 9 10 11 11 10 9 8 8 7 5 5 6 6 7 5 4 2 1 0 1 1 1 3 5 6 6 6 7 9 9 9 7
3 3 3 4 4 5 4 5 7 7 8 8 7 6 8 8 6 4 4 6 7 8 4 5 8 8 11 20 27 29 30 28 25 27 24 23 24 22 22 21 21 22 19 17 20 18 14 12 11 12 12 11 11 9 8 9 10 11 11 11 10 10 8 8 8 9 11 11 10 8 7 5 4 4 4 4 5 5 5 4 3 2 1 1 1 1 2 4 5 6 7 7 8 8 8 9 9
2 3 2 5 5 4 5 1 7 8 10 11 7 5 7 7 6 4 6 8 6 7 4 4 7 7 9 13 21 26 26 24 23 25 23 22 23 22 22 22 21 23 23 19 20 20 15 14 12 13 13 12 11 10 9 8 9 11 11 10 10 10 9 8 7 9 11 10 9 7 5 5 2 1 1 2 4 4 4 3 2 1 1 1 2 2 3 5 5 6 8 8 7 6 5 6 6
2 3 4 6 2 3 6 6 3 9 11 12 8 5 6 6 4 5 8 8 3 6 8 9 12 12 11 10 16 21 22 21 20 21 21 20 21 21 21 22 21 22 24 20 20 20 17 16 14 15 16 14 13 12 10 9 9 11 10 9 9 9 8 9 8 8 11 11 9 6 6 8 5 3 2 1 3 4 3 3 2 3 3 2 3 4 5 5 4 5 7 7 6 5 3 2 2
1 3 6 5 1 2 6 7 2 8 9 8 8 7 7 4 4 6 9 7 5 6 8 11 14 15 15 14 16 18 18 18 17 18 19 20 20 21 20 21 21 19 22 23 22 21 19 18 17 18 19 17 15 13 11 9 9 11 10 8 8 8 8 8 7 7 10 12 10 6 8 9 7 5 3 3 4 4 3 2 3 4 4 2 2 4 5 3 3 5 6 6 5 5 4 2 2
2 4 4 3 1 3 5 6 3 6 10 8 8 6 6 6 4 5 7 6 6 6 6 11 15 18 20 19 17 15 15 16 17 19 20 21 21 22 23 23 23 22 23 24 24 22 21 20 19 20 20 19 17 14 12 11 8 9 10 8 7 7 7 7 7 7 8 10 10 8 9 9 9 7 5 5 5 4 1 1 2 2 2 1 1 2 3 2 2 3 5 6 5 4 4 4 6
5 5 2 1 1 3 4 6 3 7 10 7 7 6 6 8 6 3 4 5 6 3 4 13 18 20 21 17 15 15 16 18 19 21 22 23 24 25 26 25 25 25 24 24 24 24 23 22 21 21 21 20 19 16 14 14 11 10 11 10 8 7 8 7 6 6 7 8 10 10 9 9 10 9 6 6 5 4 3 2 1 1 1 1 2 3 3 3 4 4 4 6 5 5 6 8 8
6 6 3 1 0 1 5 6 1 7 7 6 8 7 5 6 5 4 5 6 5 4 8 14 17 17 17 14 13 14 16 18 18 19 21 23 23 23 25 26 26 26 27 26 24 25 25 23 22 22 22 21 19 18 16 16 14 13 14 13 11 10 10 9 7 6 7 8 9 11 11 10 10 10 8 7 6 6 5 5 4 4 4 4 4 4 4 4 6 6 5 6 6 7 8 9 9
6 7 4 3 2 2 3 4 2 6 4 6 9 5 1 2 2 3 6 8 5 7 11 12 14 13 12 11 12 14 14 17 19 20 22 24 23 22 23 25 27 27 27 27 25 26 25 24 23 23 23 21 19 19 18 18 17 16 16 15 14 13 12 10 10 9 7 8 8 10 12 12 10 9 9 9 8 8 9 8 8 8 8 7 6 5 6 6 6 6 6 7 8 9 9 8 9
5 6 5 4 2 3 2 2 1 3 3 6 8 5 1 3 1 2 5 7 6 10 12 11 13 11 10 9 10 14 16 18 23 21 21 23 24 24 24 25 27 27 27 28 27 26 26 25 24 23 24 22 20 20 20 19 18 18 19 18 17 16 14 12 11 12 11 10 9 8 10 12 12 11 10 11 10 9 11 12 11 11 11 9 8 7 7 7 7 7 7 7 8 9 9 9 9
7 8 6 3 0 3 0 3 3 2 3 4 8 5 1 5 1 5 6 7 6 10 12 10 12 10 10 10 9 12 15 19 23 21 20 22 25 27 26 27 28 28 28 29 28 26 26 27 25 24 23 22 21 20 21 21 19 18 19 20 20 18 18 16 14 13 13 12 11 9 9 10 12 13 13 12 12 11 11 13 13 13 13 11 10 9 9 9 8 8 8 8 9 10 10 11 11
8 8 6 1 1 2 3 4 2 2 3 2 7 5 3 1 4 7 7 7 5 9 10 9 10 9 9 10 9 10 14 19 21 21 24 26 27 29 29 28 29 30 30 28 28 27 26 27 27 25 23 23 22 21 21 22 21 19 19 20 20 19 19 19 18 16 14 13 12 11 10 10 11 13 14 12 11 12 13 14 15 14 13 13 12 11 10 10 10 10 10 10 11 12 13 13 13
6 4 5 3 0 3 5 4 1 3 2 1 4 2 4 6 8 6 6 8 7 8 7 7 7 7 8 9 8 9 13 18 21 24 28 28 28 30 31 30 28 30 30 28 28 28 27 27 28 27 25 24 23 22 21 22 22 20 19 18 18 19 18 18 20 19 16 13 12 13 12 12 12 12 14 15 13 13 14 15 16 15 14 14 14 13 12 12 12 12 12 12 13 14 15 15 15
5 3 3 4 3 4 5 3 3 5 1 1 4 3 5 7 7 6 7 8 9 9 8 7 7 6 7 7 8 9 12 19 24 27 29 30 30 29 30 31 29 28 28 29 29 27 27 28 28 28 28 26 24 24 24 23 22 21 20 19 18 18 17 17 17 18 19 15 14 15 15 14 14 14 15 16 16 15 16 16 16 16 15 15 15 15 15 14 14 14 14 14 15 15 17 17 17
4 4 2 2 4 3 4 3 5 6 1 1 4 3 5 6 5 6 6 7 9 9 8 7 8 8 7 6 8 8 9 17 25 28 29 30 31 30 29 30 31 30 27 27 30 29 27 27 28 28 28 28 25 25 25 24 23 21 20 19 18 18 17 17 17 16 17 18 17 17 17 15 15 16 16 16 16 16 17 18 18 17 16 17 17 17 17 17 16 16 16 16 16 17 18 18 18
3 4 4 4 5 3 2 3 4 5 2 1 1 3 3 4 4 6 5 6 8 8 8 8 8 8 8 6 7 7 7 10 15 23 28 30 31 32 31 30 31 32 30 27 28 30 29 26 27 28 27 28 27 25 25 25 24 23 21 19 19 19 18 17 17 16 16 19 19 19 19 18 17 17 17 16 17 17 18 18 19 18 17 18 18 18 19 19 18 18 18 17 18 18 19 19 19
3 3 3 4 5 5 3 2 4 3 4 3 3 3 4 5 5 7 6 7 7 7 8 8 8 8 7 7 7 7 8 8 10 19 27 30 31 32 32 32 31 31 32 30 27 29 30 28 28 27 27 27 27 27 26 25 24 23 21 20 19 19 19 18 17 18 18 18 20 20 20 20 20 19 18 17 17 19 19 20 20 18 17 17 18 19 20 20 20 20 20 19 19 19 20 21 21
4 5 4 3 4 5 6 3 3 5 4 5 5 3 7 7 4 7 7 6 8 9 8 7 8 9 8 8 7 7 8 8 12 20 27 29 31 31 32 31 31 30 31 32 30 27 28 30 29 28 28 27 27 27 27 25 23 22 22 20 19 19 19 19 19 20 20 19 19 20 20 21 21 20 19 17 16 17 18 19 19 19 18 19 19 20 20 21 21 21 21 21 20 20 21 22 22
7 7 5 5 4 4 6 3 4 7 5 5 7 7 8 6 6 7 7 6 7 8 7 6 7 8 8 8 7 8 9 10 15 22 26 28 30 31 31 31 31 31 31 31 32 29 28 30 30 30 29 28 27 27 27 26 24 24 23 22 22 21 21 21 21 21 21 20 19 19 20 20 21 21 20 18 16 15 15 15 15 15 16 18 20 20 20 21 21 22 22 21 21 22 22 23 22
7 7 5 6 6 4 4 3 4 4 5 6 9 8 7 7 8 8 7 6 7 8 7 7 7 7 8 8 9 9 9 10 15 21 25 28 30 29 30 30 30 30 30 31 31 31 30 30 31 31 30 29 29 29 28 28 27 27 26 27 26 24 23 22 21 21 21 21 20 19 19 19 20 21 21 20 18 16 15 14 15 14 15 17 18 18 20 20 21 22 22 21 22 22 23 23 22
4 6 7 6 6 4 3 2 3 1 2 6 5 5 7 8 8 8 6 7 8 9 9 9 9 8 8 9 10 10 8 6 9 16 22 26 28 28 28 29 30 30 31 32 32 33 32 32 33 32 31 30 30 30 30 30 30 29 28 29 28 26 24 24 24 23 22 22 21 21 21 20 19 20 20 20 20 19 17 17 18 16 16 18 17 17 19 19 20 21 21 21 22 23 24 23 21
4 4 7 6 5 3 2 2 3 3 1 4 2 5 8 8 7 7 8 9 9 10 11 11 10 9 8 9 9 8 7 5 6 10 17 24 27 29 28 28 30 31 32 33 33 32 33 33 34 33 32 32 30 30 30 30 30 29 27 25 25 25 25 24 24 22 22 22 22 22 21 20 19 19 19 20 20 20 20 21 21 19 19 19 19 20 20 20 20 20 21 22 22 23 23 22 22
5 4 6 5 5 5 1 2 3 3 1 1 2 4 6 6 5 6 9 10 7 9 11 10 9 11 11 10 9 9 9 8 7 7 12 19 23 26 27 28 30 30 30 32 33 32 33 33 34 34 33 32 31 30 29 29 28 26 25 22 20 20 20 20 20 19 19 20 20 20 20 19 18 18 18 19 20 21 21 22 22 20 21 21 22 22 23 21 21 21 21 22 22 22 22 22 23
4 5 6 5 7 6 2 3 2 3 2 2 5 2 6 5 6 8 7 7 7 8 10 9 8 9 8 8 8 9 9 10 9 8 9 14 19 24 27 28 29 28 29 31 32 33 33 33 33 33 32 32 31 30 28 27 26 25 24 22 19 18 18 18 18 20 19 19 19 18 17 17 16 15 14 16 18 19 19 20 20 21 22 24 24 24 23 22 23 22 22 23 23 23 24 24 24
4 5 7 9 11 7 6 7 6 3 3 3 3 1 6 4 7 11 7 6 8 7 9 12 10 8 6 7 8 8 8 8 8 9 10 13 17 21 22 24 25 27 29 29 30 30 30 31 31 30 30 30 29 29 28 27 27 26 25 24 23 22 22 20 19 19 18 17 16 14 13 13 13 13 12 12 13 15 15 16 17 19 20 23 23 23 23 23 23 21 22 24 24 24 24 23 23
2 5 5 9 11 9 11 10 5 3 4 4 3 5 5 5 4 10 7 8 10 7 8 11 9 7 7 7 7 7 7 6 5 6 8 11 14 17 18 21 23 25 26 26 26 27 27 28 29 29 28 27 27 27 28 28 28 27 27 27 26 24 23 21 17 15 14 13 12 11 11 11 11 12 12 11 12 13 15 16 16 16 18 20 22 23 23 21 21 21 23 25 25 24 22 21 24
3 5 4 10 11 10 11 10 5 3 3 2 3 4 3 5 5 7 5 8 9 7 8 9 7 8 7 7 7 7 7 7 6 6 7 10 14 16 19 21 21 22 22 22 22 24 25 26 27 28 27 25 25 25 27 29 28 27 27 27 25 23 21 19 16 14 12 11 10 10 10 9 9 10 10 10 10 11 12 12 12 13 14 16 19 20 19 19 21 22 22 22 22 21 21 24 27
5 4 7 9 10 10 9 8 4 2 3 1 4 2 2 6 7 5 1 6 7 8 10 10 8 9 8 7 7 6 6 6 6 6 6 9 12 15 17 18 18 19 20 20 21 21 22 23 24 25 25 25 24 24 26 28 28 26 25 25 24 22 19 16 13 12 11 10 10 10 9 9 9 8 7 7 6 6 6 6 7 8 9 11 12 14 15 17 18 18 18 18 20 20 21 24 24
4 5 7 5 6 6 6 6 4 3 2 5 7 3 3 5 6 3 1 3 6 9 9 8 8 8 7 7 6 6 5 4 5 5 7 9 10 12 14 15 16 16 18 19 19 19 19 20 22 23 24 24 24 23 23 25 26 24 23 22 20 18 16 14 13 12 10 10 10 10 9 10 10 9 8 8 7 8 8 9 9 9 9 8 8 9 11 12 13 14 15 15 17 20 22 22 22
6 7 7 7 6 5 4 3 5 3 2 6 6 3 3 3 5 4 4 4 7 7 6 5 5 6 6 6 6 6 5 5 4 4 6 9 10 11 13 14 14 15 16 18 19 19 19 19 21 22 22 22 22 22 21 23 24 23 21 20 18 15 14 14 14 12 10 10 9 9 9 9 10 11 11 11 11 11 12 12 12 12 12 11 11 11 11 11 11 12 13 14 16 18 20 20 21
6 5 5 5 4 4 4 4 3 3 5 5 4 1 4 3 6 5 5 6 6 7 7 7 8 7 6 6 5 5 5 5 5 4 6 8 10 11 12 13 13 14 15 17 19 20 20 20 21 22 21 21 21 21 20 21 21 20 19 17 16 15 14 14 13 11 10 9 8 8 7 7 7 8 8 7 6 7 8 9 10 9 9 10 11 12 13 14 14 15 16 16 17 17 17 17 17
5 5 6 6 2 2 1 2 1 4 5 3 3 1 2 5 7 7 7 8 6 7 8 9 10 9 7 6 6 5 5 5 5 5 5 6 8 10 12 13 14 15 15 17 18 20 21 21 21 21 20 20 20 19 19 19 18 17 16 16 16 14 13 13 12 10 8 7 7 5 4 3 3 3 2 2 2 3 5 6 6 6 6 7 9 10 12 13 14 16 16 17 17 16 16 15 15
5 7 6 5 4 3 3 4 1 3 4 3 3 2 2 4 6 8 9 9 7 5 5 8 10 9 8 7 6 5 5 6 5 5 5 5 7 10 12 14 14 15 16 17 18 19 21 21 21 21 19 18 19 18 18 19 18 17 17 16 15 14 13 12 11 10 9 8 7 6 5 4 4 3 3 2 2 3 5 6 7 8 8 9 9 10 11 11 11 12 12 13 14 15 16 16 16
4 5 6 6 5 5 5 4 3 4 2 3 3 1 4 3 4 6 6 4 1 1 2 6 6 6 7 5 5 6 5 5 4 4 5 5 9 12 13 14 15 15 16 17 18 19 21 21 21 21 20 19 18 19 19 20 19 18 17 16 16 15 14 13 12 11 10 9 8 7 6 5 4 4 4 3 4 5 6 7 7 7 6 7 7 8 9 8 9 9 10 10 11 12 14 15 15
3 3 6 4 5 5 4 3 6 5 1 1 2 3 4 4 4 4 3 3 4 4 4 7 6 5 6 6 5 6 5 5 5 5 5 6 10 13 13 14 15 15 16 17 17 18 20 21 20 21 22 20 19 20 20 20 20 19 18 17 16 15 14 13 12 11 10 9 8 7 6 5 5 4 3 2 3 3 4 4 4 5 5 6 7 8 9 9 9 8 9 10 10 11 12 12 13
1 3 4 5 4 7 5 2 1 4 2 3 2 3 5 3 4 3 3 2 1 2 3 6 6 6 7 6 5 6 6 5 5 5 5 7 11 13 13 14 15 16 17 17 18 18 19 19 19 20 20 19 19 18 18 17 17 17 17 15 14 13 13 13 12 10 9 9 8 8 7 5 4 3 2 2 3 4 5 6 7 7 8 9 9 10 10 11 11 11 11 12 12 12 12 12 12
4 3 5 3 3 4 5 3 2 4 2 3 2 4 4 2 3 4 3 3 5 4 4 4 5 6 6 6 6 6 6 6 5 6 6 8 11 13 14 15 16 17 18 19 20 20 19 19 19 20 19 18 17 16 16 16 16 16 15 14 13 13 13 13 12 11 10 9 9 8 7 6 6 6 6 6 7 8 8 8 9 9 9 10 10 10 11 12 12 12 12 13 14 14 15 15 15
4 4 3 3 3 2 2 3 2 2 3 4 3 3 3 4 4 3 4 8 9 7 6 6 7 7 6 6 6 6 6 6 6 6 5 7 11 14 15 16 17 17 18 20 21 21 21 21 21 21 20 19 18 17 17 16 16 16 16 15 14 13 13 13 12 11 10 10 9 9 9 9 9 9 10 10 10 11 10 11 11 11 11 12 12 12 12 12 12 12 12 13 13 15 16 17 17
1 1 2 2 3 4 3 3 4 4 4 4 2 2 3 6 6 6 9 11 11 9 8 8 9 8 7 7 7 7 7 6 6 6 5 7 11 15 16 17 18 18 19 20 21 21 21 21 21 21 20 20 19 18 18 17 16 16 17 16 15 14 14 13 13 12 12 12 12 11 12 12 12 12 12 13 13 12 12 12 12 13 13 13 13 13 13 13 13 13 14 14 15 16 18 19 19
1 2 2 1 1 2 2 1 2 4 4 3 2 1 5 6 4 8 10 10 10 11 10 9 8 8 8 7 8 7 7 7 6 6 6 8 13 16 17 18 19 19 20 20 21 21 22 21 21 21 21 20 20 19 18 18 18 18 18 18 17 16 15 15 14 14 14 15 14 14 14 13 14 14 14 13 13 13 13 13 12 13 13 13 13 14 14 14 14 15 16 17 18 19 20 20 21
3 3 5 5 3 3 3 3 2 3 3 4 4 2 7 6 3 5 7 6 7 10 10 9 8 9 8 8 8 8 7 7 7 6 6 9 13 16 17 18 19 20 20 20 21 22 22 22 21 21 22 22 21 21 20 20 20 20 19 19 18 17 16 16 16 16 16 17 16 16 15 14 14 14 13 13 13 13 12 12 12 12 13 14 14 14 15 16 16 17 18 19 19 20 21 22 23
Wind_Direction
284 292 316 356 340 340 329 94 48 317 78 291 253 145 241 172 122 105 78 68 76 37 71 96 61 53 92 104 117 99 46 332 221 147 143 151 147 148 148 149 149 144 140 137 132 120 117 120 121 117 105 103 107 105 103 99 92 90 96 98 98 96 93 92 92 92 90 89 88 86 85 85 84 84 85 86 86 85 86 87 84 82 81 80 80 80 80 79 79 81 81 83 86 91 95 95 93
291 292 334 345 338 357 298 109 79 329 58 310 279 161 201 61 72 103 100 83 102 144 100 87 61 66 98 117 122 86 43 12 75 101 101 132 139 146 149 150 148 143 138 135 127 117 117 121 124 119 108 105 105 105 106 106 98 93 96 96 94 92 91 90 91 92 91 90 90 90 88 86 89 88 87 86 85 85 87 87 84 81 81 82 81 81 82 81 81 81 81 83 85 90 96 97 98
307 306 356 356 331 140 320 38 100 340 59 219 269 271 125 85 94 116 110 107 123 121 98 78 58 62 84 85 65 64 77 23 76 86 108 132 137 145 148 149 145 141 135 131 121 114 117 121 125 122 117 114 109 107 107 107 107 102 100 99 99 96 95 93 91 91 91 94 94 93 92 90 92 89 86 87 86 88 89 86 83 82 82 82 83 84 84 83 82 81 82 83 84 89 94 99 102
332 345 340 12 21 21 49 38 164 163 277 211 222 287 94 112 123 113 112 121 128 110 94 68 51 13 78 88 83 78 111 90 102 107 125 142 144 145 145 144 140 136 133 126 119 114 116 123 127 127 124 120 115 111 110 111 110 107 105 103 103 102 99 95 93 89 90 98 99 96 94 92 92 91 89 88 87 88 90 87 86 86 85 85 84 86 86 84 84 84 84 83 85 89 93 101 105
343 5 320 24 66 21 80 96 159 125 248 201 150 243 131 126 122 113 113 112 111 108 106 95 75 343 70 90 119 97 114 116 124 122 125 143 143 142 143 140 135 137 135 124 120 115 115 123 128 129 126 124 121 115 112 111 110 105 104 105 104 104 99 95 91 83 93 105 104 100 96 94 93 94 94 92 90 90 91 90 89 86 84 86 85 86 86 85 86 86 86 87 89 92 99 107 105
349 12 339 68 147 162 107 250 314 287 248 174 131 181 153 131 124 117 102 79 55 80 93 97 106 81 68 30 65 73 179 137 128 126 129 142 143 140 141 138 139 144 138 128 125 117 115 122 129 133 130 129 125 118 113 107 103 98 100 105 105 103 98 90 85 81 99 110 108 105 100 96 95 98 99 94 91 92 92 89 90 89 85 86 87 86 86 85 85 87 87 89 91 95 108 112 105
356 6 42 58 323 41 104 193 246 261 276 133 132 154 151 138 130 116 105 86 30 32 56 96 116 98 81 91 75 24 99 137 130 132 138 144 145 141 140 140 144 145 138 136 128 118 118 121 132 138 136 133 129 123 119 112 100 93 101 105 101 99 95 90 90 92 101 109 109 107 103 98 96 99 100 97 96 95 90 86 90 92 89 87 88 88 88 88 88 89 89 92 94 101 114 117 109
9 21 63 85 346 351 117 208 231 213 4 64 133 146 146 147 137 119 120 113 87 50 41 96 107 91 43 74 98 20 86 126 131 135 139 140 143 142 143 145 146 143 140 139 127 121 121 122 133 141 141 139 134 129 125 119 109 106 109 104 102 101 95 94 98 102 105 109 110 109 105 100 99 102 101 99 97 92 88 87 89 91 89 88 90 90 89 90 90 89 89 92 95 105 116 119 115
108 127 29 89 215 317 296 257 243 234 74 94 130 145 144 146 134 120 114 108 134 135 125 141 99 99 102 65 92 39 90 122 131 136 139 139 142 142 144 149 149 143 141 138 129 127 124 124 133 139 141 143 141 134 129 120 114 121 121 108 108 105 97 101 105 106 108 109 108 109 107 103 102 103 103 97 92 89 89 91 91 91 89 87 91 94 92 91 91 91 90 90 93 102 110 113 114
80 94 67 102 92 323 299 280 229 247 176 134 138 150 146 141 127 120 114 121 141 124 166 146 93 112 126 86 86 101 115 128 131 136 142 142 143 143 147 154 151 142 142 140 133 131 127 125 130 137 141 143 145 139 134 125 116 119 120 113 111 106 107 113 114 110 112 113 110 110 110 108 105 106 108 103 96 94 94 92 91 91 90 86 90 97 97 93 91 93 93 91 91 96 103 106 110
49 343 94 93 45 253 264 247 213 226 197 135 116 161 151 137 118 114 112 115 125 121 169 102 99 124 106 95 297 131 135 136 134 139 145 144 144 147 150 154 152 144 146 142 137 135 129 127 129 134 141 141 143 143 140 133 125 120 118 118 113 112 118 121 117 113 115 120 122 121 118 113 113 111 110 110 102 98 97 94 91 91 89 83 86 95 100 100 97 95 96 94 90 93 99 103 109
89 316 80 119 196 214 212 165 210 228 189 116 113 245 149 121 112 121 118 119 131 116 169 134 125 136 95 98 242 142 140 141 142 145 149 145 145 150 152 153 152 149 149 145 142 139 132 131 130 132 139 139 140 146 147 143 136 130 127 124 116 116 123 124 118 118 117 122 131 132 126 119 119 115 111 113 107 104 107 107 103 97 94 88 86 92 99 104 106 103 100 97 91 93 100 104 110
126 158 92 181 201 189 180 157 196 157 106 193 171 247 104 100 122 142 130 129 143 121 190 215 134 106 93 105 152 148 144 147 150 151 151 146 147 150 151 154 150 145 148 150 146 142 139 136 133 133 137 140 141 146 153 152 145 136 132 126 120 120 124 124 120 122 121 120 122 130 134 128 123 120 120 121 115 115 120 121 113 107 107 103 90 87 99 107 109 105 98 97 95 96 101 106 113
144 161 116 217 262 192 170 147 183 149 188 235 193 225 76 73 133 140 126 120 140 149 186 219 118 95 99 123 132 182 156 154 157 155 150 146 150 148 148 152 147 141 147 153 152 147 145 141 139 137 138 142 143 146 154 158 153 142 135 129 126 125 126 125 122 121 118 114 111 122 137 138 132 125 122 119 119 122 124 124 116 116 120 115 93 83 101 113 110 105 102 101 96 96 102 108 113
153 162 104 156 318 312 216 169 172 152 177 204 189 166 87 52 93 101 119 125 144 211 132 70 103 105 150 160 175 199 163 156 161 156 144 148 153 149 149 150 145 144 147 154 156 154 150 147 145 142 143 144 144 147 153 159 160 155 145 138 133 127 124 124 124 121 112 111 111 119 133 143 142 132 123 121 126 130 124 119 113 116 116 109 102 91 102 119 119 114 113 105 96 99 104 110 114
132 101 67 26 296 274 246 170 137 136 190 195 187 136 96 22 50 84 145 140 119 316 58 46 13 103 160 171 171 170 158 155 161 155 135 139 148 147 148 146 145 148 153 156 157 160 156 153 152 149 149 148 148 148 152 157 162 162 154 148 141 130 125 124 124 121 114 112 112 113 125 139 144 143 133 127 133 140 140 131 121 118 112 106 101 94 98 123 133 125 120 110 100 104 105 109 116
76 80 69 316 275 248 240 167 151 162 189 191 191 143 118 42 17 89 339 97 105 66 59 32 20 67 143 157 154 155 153 155 161 153 133 133 140 142 145 147 147 150 160 165 162 162 159 157 160 157 154 154 153 150 153 156 159 162 158 155 151 142 133 130 126 120 118 116 112 102 104 120 129 134 135 134 139 148 156 160 166 168 156 101 68 85 101 131 146 136 127 117 108 107 101 100 107
67 92 138 246 244 228 225 183 180 159 159 178 183 165 133 136 149 137 63 77 97 83 66 57 51 50 87 127 143 148 152 157 161 155 141 136 140 142 147 153 155 157 164 170 171 170 165 161 163 163 161 161 158 153 157 159 159 160 160 162 160 156 145 138 131 121 121 119 112 100 93 101 104 106 115 129 138 146 156 166 177 180 173 132 49 91 107 134 144 142 138 127 119 112 100 88 85
115 129 153 228 216 229 248 178 167 144 154 166 169 169 145 155 164 136 115 123 115 93 64 67 77 68 89 120 137 145 153 159 162 159 152 147 150 150 153 158 162 166 169 173 176 178 176 170 167 165 165 167 165 160 163 166 166 162 161 165 166 166 161 150 138 127 127 126 120 111 105 107 93 80 90 109 123 137 149 154 160 165 173 165 158 168 139 138 141 141 137 124 119 117 105 89 82
165 129 153 239 231 267 314 220 174 154 149 150 167 177 152 170 161 131 138 141 138 133 140 110 115 129 120 127 139 145 154 160 164 163 160 158 159 161 160 163 167 171 175 174 175 180 182 179 174 167 168 173 175 174 173 173 175 171 163 163 169 170 172 166 154 140 138 139 135 127 140 162 156 32 60 90 111 124 140 151 150 147 173 193 169 161 154 151 149 142 134 125 116 113 103 89 86
179 150 183 240 268 283 300 305 207 150 144 150 160 147 147 180 154 136 136 131 177 184 178 166 157 155 146 146 147 150 156 162 169 168 165 163 165 169 169 172 173 176 179 177 176 180 184 184 179 171 173 181 184 184 183 181 183 179 166 161 169 172 180 178 165 154 146 147 147 141 169 181 197 251 272 162 134 116 114 150 149 125 126 147 134 129 150 163 166 151 141 133 120 115 106 83 95
197 214 196 231 350 233 269 302 253 140 132 137 137 138 152 162 137 144 140 147 211 207 195 172 159 159 156 157 155 156 159 166 175 175 172 167 169 174 176 177 177 180 183 183 182 182 186 187 184 179 180 187 191 190 186 182 184 184 171 163 169 167 180 188 177 168 155 153 154 149 169 189 215 235 242 216 171 128 93 126 142 129 110 117 129 126 143 162 182 164 156 153 143 142 154 176 201
212 261 203 245 129 191 279 317 273 144 129 139 143 153 137 122 157 159 139 172 205 204 198 165 158 161 156 154 156 160 166 173 179 180 180 174 173 177 180 182 182 185 187 189 188 185 188 190 189 187 186 190 192 192 186 180 185 189 178 173 180 170 173 190 190 189 179 166 166 167 176 205 229 224 217 215 192 155 132 139 133 138 103 88 182 162 159 187 229 188 173 179 183 183 191 210 217
187 248 225 279 109 174 288 311 265 136 135 155 140 136 131 137 168 141 124 191 201 187 155 150 153 152 150 153 162 169 172 177 184 185 184 182 180 181 184 187 187 190 192 191 190 188 190 193 193 192 192 193 192 191 185 183 189 188 186 190 194 192 188 196 204 202 204 189 181 186 191 210 224 221 214 216 209 191 209 222 214 230 259 283 235 228 220 234 261 255 218 204 212 223 226 233 230
195 223 204 174 341 234 284 307 45 109 123 132 110 118 150 162 158 130 161 204 201 125 105 131 141 144 151 161 167 170 173 179 185 187 188 189 188 185 187 190 189 192 194 192 190 189 190 194 195 196 197 197 196 192 185 187 192 188 193 200 201 208 206 207 219 214 212 208 198 205 209 204 209 218 221 221 217 209 219 227 226 239 259 261 238 233 240 248 258 255 242 235 239 246 245 247 245
208 197 161 156 249 244 259 305 80 102 109 116 105 101 138 217 149 137 186 201 190 122 111 127 136 145 159 165 170 171 174 179 185 188 189 192 194 191 189 190 190 193 196 193 191 191 191 193 196 199 201 201 198 193 188 192 196 192 193 198 200 206 207 206 217 220 219 222 221 225 220 206 201 214 225 230 227 215 215 223 229 234 244 252 246 245 250 256 261 253 245 245 251 257 260 260 259
190 157 124 130 231 256 225 276 216 102 77 109 116 127 137 337 81 175 219 202 171 122 124 138 141 154 164 166 175 174 177 183 186 187 186 190 196 197 194 192 191 194 196 194 193 193 193 194 196 199 202 203 200 196 194 197 200 197 195 197 199 201 200 199 208 217 223 229 233 234 225 210 203 209 222 233 238 225 215 221 228 232 239 246 248 249 251 254 260 260 257 256 259 265 268 266 265
142 125 98 89 310 294 208 160 217 119 85 112 114 115 10 12 78 211 208 195 172 131 140 152 150 161 168 170 177 176 183 187 186 187 189 192 196 198 199 197 194 195 196 194 194 195 196 197 197 198 202 203 202 200 198 200 204 204 202 203 205 206 204 203 204 209 219 228 234 236 232 224 213 210 215 227 239 236 226 227 232 235 239 244 247 247 247 252 256 257 259 262 265 268 267 266 264
146 137 116 96 18 302 231 187 236 136 137 168 115 88 327 298 233 228 182 172 162 136 150 160 161 167 169 173 176 180 187 185 185 191 197 198 196 197 200 201 197 194 194 195 196 198 200 200 198 199 201 203 204 203 201 202 207 210 210 210 212 212 211 212 209 206 212 221 231 234 234 238 233 221 217 219 230 236 235 235 238 242 244 244 247 248 248 251 252 253 254 258 263 266 268 268 264
154 151 132 141 72 274 237 216 237 133 152 239 127 131 266 237 232 224 170 159 139 139 167 175 176 176 173 176 175 183 185 181 186 194 199 201 199 199 200 201 199 195 194 196 198 199 202 202 200 200 201 204 206 206 205 203 207 213 216 215 214 216 217 218 214 211 212 214 227 235 236 240 243 240 229 220 222 230 234 237 242 246 249 247 247 249 250 253 254 256 255 257 263 265 268 269 265
144 137 143 150 169 241 248 221 156 142 206 21 113 168 247 254 240 202 180 171 152 160 186 187 192 192 183 183 178 185 186 184 190 195 199 202 202 202 201 201 200 198 196 197 199 198 201 203 201 201 202 205 207 208 207 204 207 213 216 219 218 219 222 223 219 216 216 215 224 233 238 242 243 247 242 228 225 229 232 236 242 246 250 250 249 250 251 254 256 260 260 261 265 267 269 272 268
149 143 200 201 171 221 270 239 172 156 221 49 115 180 256 270 243 200 185 173 163 169 188 191 195 200 194 190 184 186 191 190 193 195 199 201 202 204 204 203 202 202 200 198 198 197 200 203 202 201 202 204 207 209 209 207 209 211 214 219 222 223 226 228 227 223 220 219 223 229 235 240 241 244 247 239 232 235 238 239 241 244 249 251 252 251 251 253 257 262 265 265 268 271 274 276 275
194 145 183 200 170 196 258 260 223 172 149 15 136 166 236 259 215 209 198 173 169 170 189 196 194 201 194 189 188 185 189 193 196 198 198 200 202 205 205 205 204 205 205 201 197 197 199 201 202 203 202 203 207 208 210 212 212 213 216 218 221 225 228 232 232 230 227 224 226 229 231 236 240 243 247 244 238 240 244 246 245 244 247 252 253 251 251 254 260 264 266 268 271 274 276 277 279
206 142 164 202 169 170 187 252 253 172 160 202 179 162 232 257 199 198 207 182 176 182 197 201 196 200 195 189 188 186 189 193 201 199 197 198 201 204 206 206 206 206 207 205 202 199 200 202 203 205 205 205 207 210 212 216 216 215 217 219 221 226 230 235 236 236 235 231 230 231 233 236 239 242 245 245 245 246 247 250 250 247 247 251 251 252 255 258 261 264 267 270 271 271 273 276 280
166 157 160 193 162 167 180 204 206 161 179 198 169 203 252 272 228 206 220 193 185 201 204 198 196 197 195 193 192 193 196 201 206 201 197 197 200 203 204 205 206 206 206 206 206 203 202 204 206 207 208 208 210 213 214 215 216 214 216 219 222 227 231 234 236 236 237 237 236 234 236 240 242 245 247 251 257 252 248 251 252 250 248 249 252 256 259 259 260 263 266 270 272 272 272 275 279
160 171 165 161 159 198 198 222 223 163 165 196 183 207 228 240 235 224 228 205 195 214 214 200 199 198 195 195 198 198 199 210 212 203 198 198 200 202 202 203 204 205 206 205 205 205 204 203 205 207 209 210 211 212 212 213 213 213 217 219 221 225 227 230 233 234 236 238 241 240 239 242 245 250 252 255 258 254 254 260 261 258 253 252 254 257 261 262 264 266 269 273 277 276 274 274 275
166 169 178 178 167 205 223 251 274 154 154 209 203 209 220 219 229 228 215 198 205 221 222 216 208 199 198 198 201 200 203 216 213 205 200 200 201 201 200 200 200 201 203 204 204 204 205 203 203 206 209 210 209 209 209 209 209 210 212 216 219 221 222 225 228 232 236 240 244 245 245 246 248 251 253 253 254 255 263 273 271 268 264 256 253 260 266 266 268 271 273 276 277 277 276 276 275
190 170 180 206 185 194 242 235 281 34 166 226 206 210 242 231 231 235 196 182 210 214 208 215 211 205 203 200 203 202 204 215 206 201 200 198 199 198 197 196 196 198 199 201 203 204 206 205 206 208 208 208 209 209 208 209 210 210 211 213 217 220 222 224 227 231 236 241 245 248 250 251 252 254 254 254 254 255 264 272 269 266 267 260 257 265 270 269 268 269 271 272 273 273 273 274 275
215 190 174 206 201 173 317 320 335 17 178 250 203 196 244 245 237 236 197 191 212 210 203 205 199 200 206 204 205 202 199 200 189 192 196 196 195 195 196 196 197 199 199 200 203 204 204 206 209 210 209 209 210 210 209 210 213 214 215 217 218 222 226 229 233 237 239 241 245 249 252 255 257 260 259 258 257 257 264 266 261 261 267 266 264 266 268 268 268 269 268 268 269 269 267 270 273
204 197 176 198 184 155 208 282 337 29 119 240 147 190 260 272 270 256 216 204 211 210 212 212 198 198 205 203 199 193 191 193 189 190 190 190 192 192 194 195 195 196 197 197 200 202 203 205 208 209 209 209 210 210 211 212 214 217 220 223 225 228 231 234 237 239 240 241 243 246 251 254 259 264 264 262 260 262 266 265 260 261 268 268 264 262 261 265 269 271 269 265 264 264 265 271 274
226 198 187 183 172 170 173 161 106 27 355 50 96 37 302 258 241 255 235 212 219 215 213 225 229 220 211 203 201 197 192 187 184 188 187 184 186 190 193 196 196 196 195 195 198 201 202 204 206 208 209 210 210 211 212 212 213 214 216 219 225 227 229 231 232 233 235 238 240 244 247 251 257 264 267 262 260 261 264 264 264 265 268 266 262 259 262 270 272 272 273 270 266 264 265 271 276
251 214 199 180 170 157 126 125 105 70 304 278 115 88 290 264 227 240 238 213 225 215 202 216 226 224 206 197 203 201 196 196 188 186 186 184 186 190 194 196 197 199 201 200 201 202 203 204 205 207 209 210 211 211 211 210 210 211 210 210 212 215 216 219 223 226 227 230 236 243 249 253 258 262 264 262 263 266 266 267 268 268 271 271 269 269 270 272 272 276 281 277 272 270 265 265 273
223 242 207 166 152 134 133 141 124 132 219 266 122 158 256 305 258 240 230 213 225 215 205 215 210 205 200 194 198 189 185 194 187 178 181 188 193 194 198 200 200 201 203 204 205 206 207 207 206 206 208 209 209 209 209 210 210 210 210 208 208 208 209 210 215 219 221 230 240 248 256 261 266 267 265 267 272 275 275 273 272 273 275 274 272 271 271 275 279 282 282 277 275 275 268 264 270
215 244 160 140 139 141 150 150 144 172 186 325 33 134 218 284 267 256 213 195 226 228 220 226 213 211 209 201 206 198 191 189 176 172 179 190 196 199 203 205 206 207 205 204 206 208 209 210 208 207 207 207 208 208 208 208 209 209 208 208 208 209 210 211 218 224 226 232 235 236 239 244 252 258 257 259 262 267 275 277 277 281 283 281 278 275 278 285 286 283 280 279 276 274 274 271 269
228 209 139 139 144 147 150 142 134 125 120 269 281 143 177 261 273 299 111 167 221 232 223 223 217 216 211 204 204 193 189 185 178 183 186 188 192 198 203 204 205 208 207 204 203 202 204 205 205 205 205 206 206 206 206 207 208 208 207 207 208 211 216 219 221 219 214 213 215 216 212 215 227 231 230 237 246 257 273 283 286 292 295 294 293 292 295 297 297 297 298 295 287 283 285 281 274
203 141 104 87 96 106 113 122 111 79 122 224 240 185 169 265 279 304 56 169 216 226 228 224 217 213 202 190 180 162 152 149 161 179 179 176 177 183 187 188 192 197 200 201 198 195 195 196 197 199 200 202 203 203 202 203 205 206 204 203 205 207 210 209 202 198 200 204 212 216 214 217 224 228 232 239 248 256 262 272 281 290 295 298 302 305 308 310 312 311 311 309 305 298 292 285 282
134 101 80 62 49 58 60 65 89 98 239 246 243 199 156 266 279 234 201 212 204 207 235 228 205 204 192 177 164 158 153 145 139 141 151 151 154 163 170 174 182 187 192 196 196 193 189 188 189 191 193 196 198 199 198 199 202 204 204 202 202 201 196 193 193 197 206 210 214 223 229 234 239 246 254 260 265 266 267 273 279 282 282 282 290 300 305 309 309 305 306 311 312 307 297 291 288
106 94 106 91 26 21 29 5 58 158 239 261 269 218 147 215 263 243 243 258 212 191 209 202 186 186 184 177 172 169 166 155 145 143 150 147 145 157 167 172 177 182 187 192 194 193 189 186 185 184 186 189 192 193 193 194 197 200 203 203 202 201 198 198 200 203 209 215 226 240 249 250 250 255 265 273 280 280 281 286 290 293 289 280 283 288 290 294 297 297 299 301 306 311 311 312 311
87 119 128 114 66 41 96 264 225 209 241 274 299 287 185 231 253 255 267 271 241 213 207 187 176 175 174 175 174 169 162 155 157 162 165 159 153 158 164 166 169 174 180 182 185 187 185 183 182 179 178 182 186 186 186 186 187 189 192 193 194 194 194 194 195 197 204 213 224 233 234 224 218 220 234 260 284 290 290 296 306 315 316 300 292 290 290 290 290 290 292 293 297 301 306 314 318
126 148 142 137 132 118 192 236 250 230 250 282 299 290 249 269 269 256 255 250 244 248 214 168 162 164 167 172 161 153 157 158 166 168 167 166 159 158 158 159 163 167 171 171 172 176 176 175 175 171 167 172 179 180 180 181 180 180 181 181 182 182 182 184 187 192 199 206 210 207 200 193 194 199 206 238 268 283 292 301 305 303 301 298 298 298 297 296 296 299 300 299 299 299 300 303 304
173 167 137 145 153 149 184 207 197 206 249 287 295 261 189 202 256 261 266 262 246 340 133 130 134 147 148 146 135 134 146 150 152 150 149 151 146 147 149 151 156 161 164 164 163 165 166 164 165 164 159 162 169 170 172 176 176 178 178 178 181 184 186 188 191 194 197 203 209 205 203 204 205 211 223 244 266 280 290 298 303 308 310 310 314 318 321 321 319 322 322 316 312 308 306 306 305
223 149 117 160 177 145 146 173 175 166 152 258 246 233 209 207 263 289 345 18 50 59 90 110 118 131 132 137 140 140 143 142 138 130 126 128 127 130 133 135 140 145 152 158 160 162 163 164 167 167 163 162 165 167 170 175 177 179 180 181 183 183 182 182 184 185 186 189 191 186 184 186 186 192 210 238 278 302 317 335 349 8 18 15 10 3 2 1 354 348 339 331 328 321 315 312 307
198 125 163 210 160 118 118 166 131 100 139 239 206 239 287 303 286 319 28 45 61 78 110 129 144 148 145 156 162 154 150 146 139 130 125 118 114 117 122 125 126 126 132 143 151 157 161 164 165 165 164 165 167 169 170 171 171 171 172 172 169 166 164 166 170 171 168 165 160 157 156 151 145 136 116 85 61 48 41 38 38 40 39 36 31 22 16 17 16 12 3 357 355 348 340 333 326
118 157 201 196 115 95 107 136 29 69 177 266 214 213 269 270 250 312 332 237 228 217 192 170 169 166 162 171 174 164 155 146 133 124 118 111 109 111 116 120 121 120 122 130 138 144 148 149 149 148 150 153 155 154 152 151 152 152 155 158 159 159 160 161 164 163 161 158 151 147 144 130 113 100 90 82 77 72 64 58 55 51 49 45 41 33 27 23 19 15 9 2 359 356 356 356 354
135 182 184 123 141 191 119 140 165 152 202 272 274 242 246 201 216 263 244 228 225 219 207 191 188 184 176 176 176 163 148 139 131 124 117 111 112 113 116 119 120 122 123 126 133 138 140 141 142 141 141 142 145 146 146 148 152 153 155 158 160 160 160 159 157 155 154 149 140 132 125 115 106 100 95 90 85 81 75 70 65 60 56 53 48 43 37 31 25 19 14 8 4 1 2 4 2
50 87 75 78 139 171 171 161 156 158 195 234 273 324 259 229 217 199 210 219 208 199 201 197 195 189 181 174 170 165 158 153 145 136 129 119 118 119 121 124 125 126 127 129 134 137 138 139 141 141 141 143 146 149 150 151 154 154 153 152 150 149 150 149 145 143 140 131 124 120 115 110 106 102 97 92 87 82 77 70 65 61 57 53 48 44 40 36 32 26 21 16 12 9 7 5 3
148 105 147 186 125 126 160 184 133 132 157 191 185 282 263 251 210 192 214 224 204 195 196 196 195 189 184 176 169 168 164 158 148 139 133 126 124 123 124 127 128 129 129 131 134 134 136 138 138 139 140 142 144 146 148 146 145 145 143 140 140 139 140 138 135 133 128 121 117 113 110 106 104 99 94 91 86 80 74 68 63 58 53 49 45 40 37 33 29 25 21 17 13 10 8 5 2
166 170 183 185 161 124 153 225 233 115 140 175 162 213 268 258 200 203 231 236 217 200 189 187 192 187 183 180 175 170 162 157 150 144 138 134 132 130 130 131 132 132 130 131 132 133 134 135 135 137 137 138 140 142 142 141 140 140 138 135 134 133 132 131 128 125 119 115 111 108 106 103 99 94 90 87 82 76 71 65 60 55 50 47 41 36 32 28 25 23 19 15 11 8 6 3 1